CDT,Max TemperatureF,Mean TemperatureF,Min TemperatureF,Max Dew PointF,MeanDew PointF,Min DewpointF,Max Humidity, Mean Humidity, Min Humidity, Max Sea Level PressureIn, Mean Sea Level PressureIn, Min Sea Level PressureIn, Max VisibilityMiles, Mean VisibilityMiles, Min VisibilityMiles, Max Wind SpeedMPH, Mean Wind SpeedMPH, Max Gust SpeedMPH,PrecipitationIn, CloudCover, Events, WindDirDegrees
2013-8-1,80,67,53,64,54,50,93,68,42,30.03,29.95,29.86,,,,13,5,18,0.00,,,316
2013-8-2,76,63,50,58,53,49,96,70,44,30.07,29.97,29.89,,,,9,3,15,0.00,,,6
2013-8-3,76,63,49,57,52,48,96,69,41,30.21,30.16,30.08,,,,12,4,16,0.00,,,11
2013-8-4,75,63,50,62,55,49,100,77,53,30.22,30.09,29.92,,,,29,5,39,0.64,,,172
2013-8-5,77,67,57,65,61,57,100,78,56,29.91,29.85,29.79,,,,15,5,20,0.00,,,3
2013-8-6,85,72,58,66,61,55,100,76,51,29.85,29.73,29.63,,,,36,10,49,0.00,,,307
2013-8-7,75,63,51,59,54,50,97,72,46,30.00,29.96,29.86,,,,9,4,13,0.00,,,20
2013-8-8,77,65,52,61,57,50,93,68,43,30.02,29.98,29.95,,,,13,3,18,0.00,,,303
2013-8-9,75,64,52,54,51,49,96,69,41,30.15,30.08,30.02,,,,17,8,23,0.00,,,338
2013-8-10,75,60,45,61,53,44,100,73,46,30.19,30.13,30.04,,,,7,2,10,0.00,,,142
2013-8-11,79,66,53,63,58,52,100,76,52,30.05,30.03,30.01,,,,10,4,13,0.00,,,17
2013-8-12,79,64,48,59,53,47,100,69,37,30.10,30.06,30.04,,,,13,4,21,0.00,,,353
2013-8-13,76,61,46,56,49,44,93,66,38,30.20,30.16,30.12,,,,8,3,13,0.00,,,10
2013-8-14,78,61,44,57,51,43,100,70,40,30.17,30.12,30.05,,,,8,3,18,0.00,,,129
2013-8-15,79,67,54,61,56,52,100,73,46,30.10,30.06,30.02,,,,9,3,13,0.00,,,157
2013-8-16,77,65,52,61,57,52,100,75,50,30.13,30.09,30.07,,,,14,6,20,0.00,,,196
2013-8-17,84,69,53,65,61,53,100,78,55,30.08,30.01,29.95,,,,15,8,22,0.00,,,183
2013-8-18,84,74,64,67,63,58,87,73,58,29.97,29.91,29.84,,,,20,11,25,0.00,,,207
2013-8-19,87,78,69,71,68,65,97,77,57,29.87,29.81,29.77,,,,20,6,26,0.00,,,207
2013-8-20,93,79,64,75,69,64,100,71,41,29.77,29.74,29.69,,,,15,5,24,0.00,,,181
2013-8-21,84,72,60,73,64,57,94,71,47,30.01,29.87,29.69,,,,18,8,24,0.00,,,360
2013-8-22,81,68,54,59,53,49,93,63,33,30.15,30.10,30.03,,,,13,4,16,0.00,,,29
2013-8-23,84,68,51,72,62,50,96,77,58,30.09,29.98,29.86,,,,18,8,24,0.00,,,169
2013-8-24,92,81,70,74,71,68,100,75,49,29.85,29.76,29.69,,,,26,14,37,0.00,,,196
2013-8-25,94,85,76,76,72,68,91,70,49,29.85,29.80,29.73,,,,23,7,35,0.00,,,242
2013-8-26,93,83,72,75,73,71,100,76,52,29.86,29.79,29.72,,,,13,4,20,0.00,,,206
2013-8-27,93,81,68,74,71,67,100,74,47,29.88,29.79,29.72,,,,10,4,15,0.00,,,5
2013-8-28,85,75,65,76,72,64,100,87,74,29.95,29.90,29.86,,,,12,3,16,0.06,,,153
2013-8-29,96,83,69,74,72,69,100,72,43,29.89,29.81,29.74,,,,24,7,32,0.00,,,220
2013-8-30,87,75,63,68,65,62,100,72,43,29.95,29.88,29.83,,,,13,5,16,0.00,,,24
2013-8-31,92,77,62,70,65,56,100,72,44,29.86,29.76,29.67,,,,26,7,37,0.25,,,235